Location: Cheyres
(46.8153°N, 6.7877°E)
Time: 02:55:30
(UTC+00:00)

CUTE 1.7 + AOD 2 - Visible Passes

Search period start: 29 June 2022 00:00
Search period end: 09 July 2022 00:00
Orbit: 590 x 607 km, 97.7° (Epoch: 28 June)

Date Brightness Start Highest point End Pass type
(mag) Time Alt. Az. Time Alt. Az. Time Alt. Az.
01 Jul ? 02:10:18 10° ENE 02:11:45 11° E 02:13:11 10° ESE visible
02 Jul ? 02:20:14 10° NE 02:22:41 15° E 02:25:06 10° SE visible
03 Jul ? 02:30:33 10° NE 02:33:35 19° E 02:36:36 10° SE visible
04 Jul ? 02:41:01 10° NE 02:44:29 24° E 02:47:54 10° SSE visible
05 Jul ? 02:51:36 10° NNE 02:55:22 31° E 02:59:05 10° SSE visible
06 Jul ? 03:02:14 10° NNE 03:06:12 40° E 03:10:09 10° SSE visible
